Location: Star Hoppers Observatory
(42.7905°N, 83.6127°W)
Time: 01:31:04
(UTC-04:00)

Daily predictions for brighter satellites

Satellite Brightness Start Highest point End
(mag) Time Altitude Azimuth Time Altitude Azimuth Time Altitude Azimuth
SL-16 R/B 4.4 03:08:19 23° N 03:08:19 23° N 03:10:43 10° N
Resurs 1-4 Rocket 4.1 03:38:22 10° NNE 03:40:26 24° NNE 03:40:26 24° NNE
Cosmos 2227 Rocket 4.5 04:05:21 15° NNW 04:05:21 15° NNW 04:06:48 10° N
Cosmos 2263 Rocket 3.4 04:08:41 38° E 04:08:41 38° E 04:13:07 10° NE
ARIANE 5 R/B 4.2 04:12:15 10° NNE 04:14:37 28° N 04:14:37 28° N
CZ-4C R/B 4.0 04:22:58 22° NNW 04:22:58 22° NNW 04:27:01 10° NNE
ATLAS 3B R/B 4.3 04:21:56 22° SSE 04:25:04 30° ESE 04:31:05 10° NE
CZ-2D R/B 3.7 04:20:59 10° N 04:23:22 27° N 04:23:22 27° N
Atlas Centaur 2 4.1 04:33:33 20° SE 04:33:33 20° SE 04:35:55 10° SE
ASTEX 1 4.3 04:30:35 10° NNE 04:35:19 43° E 04:35:32 43° E
Cosmos 2208 Rocket 4.5 04:34:35 10° NNW 04:39:49 58° ENE 04:44:57 10° SE
CZ-3 R/B 4.3 04:33:13 31° SSW 04:40:23 37° S 04:49:43 10° ESE
Cosmos 2297 Rocket 4.5 04:46:55 11° NNW 04:46:55 11° NNW 04:47:58 10° NNW
Cosmos 1932 4.5 04:47:39 71° S 04:48:20 80° ESE 04:54:56 10° NE
Gbstr 26 Del rocket 4.3 04:47:25 53° WNW 04:49:35 83° SW 04:57:46 10° SE
Okean O Rocket 3.9 04:47:12 10° NE 04:50:33 21° E 04:53:52 10° SE
Cosmos 2266 Rocket 3.9 04:52:59 10° N 04:59:26 87° W 05:03:06 28° S
ADEOS II 2.5 04:57:41 10° NNE 05:02:55 60° E 05:05:00 35° SSE
DELTA 2 R/B (1) 3.7 05:03:49 58° S 05:03:49 58° S 05:08:55 10° ESE
Cosmos 1607 3.9 05:07:24 61° W 05:08:11 67° NW 05:14:35 10° NNE
Cosmos 332 Rocket 3.7 05:09:46 10° NNW 05:14:37 86° ENE 05:19:24 10° SSE
MOS 1-B 4.4 05:09:25 10° NNE 05:15:15 78° ESE 05:18:24 28° S
Intercosmos 25 Rocket 3.9 05:16:06 45° SE 05:16:38 50° E 05:19:46 10° NNE
PSLV R/B 4.3 05:12:47 10° NNE 05:16:53 49° E 05:18:48 28° SSE
Cosmos 371 Rocket 3.3 05:13:26 10° NNW 05:18:20 80° ENE 05:23:11 10° SSE
Cosmos 1741 Rocket 4.1 05:22:19 53° WNW 05:22:28 53° WNW 05:27:37 10° NNE
Resurs 1-4 Rocket 3.9 05:19:21 10° NNW 05:21:30 17° NW 05:21:30 17° NW
Cosmos 1544 Rocket 3.5 05:20:54 10° N 05:25:17 84° E 05:29:38 10° S
Cosmos 468 Rocket 4.0 05:21:33 10° NNW 05:26:55 84° ENE 05:32:13 10° SSE
COSMOS 2406 4.5 05:22:26 10° NNW 05:27:56 42° ENE 05:33:22 10° SE
Cosmos 1975 Rocket 3.7 05:29:11 41° NW 05:29:11 41° NW 05:32:35 10° N
SL-8 R/B 4.0 05:30:44 47° WNW 05:31:42 57° NNW 05:36:27 10° ENE
Cosmos 1455 Rocket 2.9 05:28:23 10° N 05:32:44 90° ENE 05:37:03 10° S
Abrixas rocket 3.5 05:34:19 32° N 05:34:19 32° N 05:37:09 10° ENE
Cosmos 1666 2.9 05:32:53 10° N 05:36:40 70° E 05:40:27 10° SSE
USA 238 DEB 3.9 05:36:36 20° SSW 05:41:40 75° ESE 05:48:40 10° NE
USA 238 3.9 05:36:40 19° SSW 05:41:46 74° ESE 05:48:46 10° NE
Cosmos 1844 Rocket 3.5 05:36:43 10° S 05:42:10 51° ESE 05:47:40 10° NE
Lacrosse 4 Rocket 4.5 05:40:16 10° NNE 05:42:18 13° NE 05:44:18 10° ENE
Cosmos 1763 Rocket 3.9 05:37:13 10° NNW 05:42:31 67° ENE 05:47:48 10° SSE
Meteor 1-4 Rocket 2.2 05:44:22 10° NNW 05:47:51 80° W 05:51:19 10° S
BREEZE-M R/B 3.8 05:48:19 39° SW 05:49:29 71° SE 05:58:44 10° ENE
Cosmos 1975 4.1 05:46:14 10° NNW 05:48:24 25° NW 05:48:24 25° NW
Meteor 1-31 Rocket 4.0 05:46:38 10° NNE 05:50:21 42° E 05:54:00 10° S
Cosmos 2263 Rocket 3.0 05:50:24 29° W 05:51:49 33° NW 05:56:56 10° N
PSLV R/B 3.8 05:48:16 10° N 05:52:00 53° WNW 05:52:49 43° WSW
Cosmos 1743 2.7 05:48:33 10° NNW 05:52:23 56° W 05:56:12 10° S
Lacrosse 5 rocket 3.9 05:52:05 10° N 05:53:29 12° NNE 05:54:53 10° NE
Cosmos 1536 Rocket 3.4 05:49:51 13° S 05:53:41 82° W 05:58:05 10° N
Cosmos 304 Rocket 4.2 05:53:40 10° NNW 05:58:28 64° ENE 06:03:15 10° SSE
Meteor PRIRODA 4.0 05:54:53 10° NNE 05:58:34 64° ESE 06:02:13 10° S
Cosmos 1417 Rocket 4.5 06:00:10 10° S 06:06:32 78° W 06:12:55 10° N
PAYLOAD B 4.2 06:03:46 10° N 06:09:15 68° WNW 06:14:41 10° SSW
Meteor 1-28 Rocket 4.4 06:05:44 10° SE 06:09:18 45° ENE 06:12:54 10° N
ATLAS 5 CENTAUR R/B 2.8 06:05:20 10° NNW 06:11:15 66° NE 06:17:44 10° SE
Cosmos 1745 Rocket 4.1 06:06:50 10° N 06:13:15 85° E 06:19:34 10° S
ATLAS 3B R/B 2.9 06:09:15 16° SW 06:15:23 64° NW 06:22:27 10° NNE
Cosmos 1025 Rocket 3.7 06:12:16 10° S 06:16:26 57° E 06:20:39 10° NNE
USA 116 3.3 06:14:13 10° SSE 06:17:22 74° ENE 06:20:28 10° N
NOSS 3-2 (C) 4.3 06:12:49 10° SSW 06:18:32 52° ESE 06:24:48 10° NE
Atlas Centaur 2 3.7 06:16:11 15° SW 06:19:17 21° SSW 06:23:12 10° SSE
Cosmos 1553 Rocket 3.9 06:13:23 10° SSW 06:19:29 73° W 06:25:35 10° N
Cosmos 2292 Rocket 4.4 06:16:59 10° N 06:21:51 77° E 06:28:25 10° S
Okean 1-7 Rocket 4.1 06:20:29 10° S 06:24:57 64° E 06:29:29 10° NNE
SL-08 R/B 4.4 06:20:24 10° NNW 06:26:25 62° W 06:32:27 10° S
ATLAS CENTAUR R/B 2.0 06:23:07 10° SSW 06:26:54 50° ESE 06:30:33 10° NE
Okean O Rocket 2.2 06:23:03 10° N 06:27:00 35° WNW 06:30:57 10° SW
GEOS 3 Rocket 4.5 06:22:09 10° ESE 06:27:11 53° NE 06:32:21 10° NNW
CZ-4B R/B 4.0 06:25:51 10° NNW 06:29:06 23° WNW 06:31:14 15° WSW
Cosmos 1844 3.7 06:27:17 10° SSW 06:32:53 83° WNW 06:38:37 10° NNE
Cosmos 1814 Rocket 4.5 06:28:38 10° NW 06:33:21 37° WSW 06:38:05 10° SSW
CZ-4B R/B 3.4 06:28:52 10° N 06:33:55 47° WNW 06:39:00 10° SW
Cosmos 389 Rocket 2.5 06:31:28 10° N 06:34:57 84° E 06:38:26 10° S
Cosmos 724 4.4 06:33:08 10° SW 06:39:10 62° NW 06:45:07 10° NNE
Feng Yun 1-1 Rocket 4.3 06:35:01 10° NNE 06:40:26 81° ESE 06:45:54 10° SSW
S3M 4.1 06:34:29 10° SSW 06:40:37 55° WNW 06:46:53 10° N
ADEOS II 3.5 06:38:31 10° NNW 06:42:09 19° WNW 06:45:47 10° WSW
COSMO-SKYMED 1 2.8 06:39:58 10° SSE 06:44:17 78° ENE 06:48:39 10° N
Cosmos 1503 Rocket 4.1 06:38:57 10° SSW 06:44:19 90° NW 06:49:44 10° NNE
Cosmos 1271 Rocket 2.8 06:41:10 10° NNW 06:45:09 63° W 06:49:07 10° S
Meteor 2-4 Rocket 4.1 06:40:43 10° SW 06:46:01 43° WNW 06:51:30 10° N
Cosmos 1354 Rocket 4.1 06:40:43 10° SSW 06:46:02 88° WNW 06:51:25 10° NNE
Cosmos 1606 Rocket 3.9 06:41:42 10° N 06:46:03 72° E 06:50:23 10° SSE
USA 215 3.7 06:41:50 10° ESE 06:48:15 63° NE 06:54:42 10° NW
CZ-4B R/B 4.3 06:45:05 10° N 06:48:46 40° WNW 06:52:37 10° SW
Cosmos 2058 Rocket 4.1 06:50:48 10° N 06:55:12 53° E 06:59:36 10° SSE
CZ-2C R/B 4.4 06:51:29 10° SSW 06:55:45 34° W 07:00:05 10° NNW
